Weather History for Shelton, WA

Change the Weather History Date:

Saturday, November 24, 2012

  Actual Average Record
Temperature  
Mean Temperature 40 °F -  
Max Temperature 46 °F 48 °F 65 °F (1968)
Min Temperature 35 °F 34 °F 7 °F (1985)
Degree Days  
Heating Degree Days 24    
Moisture  
Dew Point 40 °F    
Average Humidity 97    
Maximum Humidity 100    
Minimum Humidity 86    
Precipitation  
Precipitation 0.00 in - - ()
Sea Level Pressure  
Sea Level Pressure 30.22 in    
Wind  
Wind Speed 4 mph (SW)    
Max Wind Speed 10 mph    
Max Gust Speed -    
Visibility 7 miles    
Events Rain    
Averages and records for this station are not official NWS values.
T = Trace of Precipitation, MM = Missing Value Source: NWS Daily Summary

Daily Weather History Graph

Daily Weather History Graph

Search for Another Location

Airport:

Trip Planner

Search our weather history database for the weather conditions in past years. The results will help you decide how hot, cold, wet, or windy it might be!

Date:

Astronomy

Nov. 24, 2012 Rise Set
Actual Time 7:30 AM PST 4:28 PM PST
Civil Twilight 6:55 AM PST 5:02 PM PST
Nautical Twilight 6:18 AM PST 5:40 PM PST
Astronomical Twilight 5:41 AM PST 6:17 PM PST
Moon 2:25 PM PST (11/24) 3:41 AM PST (11/24)
Length of Visible Light 10h 06m
Length of Day
8h 58m
Waxing Gibbous, 88% of the Moon is Illuminated
Nov 24
Waxing Gibbous
Nov 28
Full
Dec 6
Last Quarter
Dec 13
New
Dec 19
First Quarter

Hourly Weather History & Observations

Time (PST) Temp. Windchill Dew Point Humidity Pressure Visibility Wind Dir Wind Speed Gust Speed Precip Events Conditions
12:53 AM 46.0 °F 41.4 °F 45.0 °F 96% 30.15 in 10.0 mi SW 9.2 mph - 0.00 in   Overcast
1:53 AM 45.0 °F 41.8 °F 44.1 °F 97% 30.16 in 10.0 mi SSW 5.8 mph - 0.00 in Rain Light Rain
2:53 AM 44.1 °F 39.5 °F 43.0 °F 96% 30.19 in 10.0 mi WSW 8.1 mph - N/A   Clear
3:31 AM 42.8 °F 37.0 °F 42.8 °F 100% 30.17 in 10.0 mi WSW 10.4 mph - N/A   Partly Cloudy
3:53 AM 43.0 °F 37.7 °F 42.1 °F 97% 30.19 in 10.0 mi WSW 9.2 mph - N/A   Partly Cloudy
4:26 AM 42.8 °F 40.1 °F 42.8 °F 100% 30.17 in 10.0 mi WSW 4.6 mph - N/A   Mostly Cloudy
4:53 AM 42.1 °F 38.4 °F 42.1 °F 100% 30.19 in 10.0 mi WSW 5.8 mph - N/A   Overcast
5:53 AM 42.1 °F 39.2 °F 42.1 °F 100% 30.21 in 10.0 mi Variable 4.6 mph - N/A   Overcast
6:46 AM 42.8 °F 40.1 °F 41.0 °F 93% 30.20 in 10.0 mi WNW 4.6 mph - N/A   Overcast
6:53 AM 42.1 °F 40.2 °F 41.0 °F 96% 30.22 in 10.0 mi WNW 3.5 mph - N/A   Overcast
7:34 AM 39.2 °F 37.0 °F 39.2 °F 100% 30.21 in 10.0 mi NW 3.5 mph - N/A   Overcast
7:53 AM 39.0 °F 35.7 °F 39.0 °F 100% 30.23 in 10.0 mi West 4.6 mph - N/A   Mostly Cloudy
8:04 AM 39.2 °F - 39.2 °F 100% 30.22 in 10.0 mi Calm Calm - N/A   Scattered Clouds
8:36 AM 39.2 °F 37.0 °F 39.2 °F 100% 30.23 in 10.0 mi WSW 3.5 mph - N/A   Mostly Cloudy
8:53 AM 39.9 °F - 39.9 °F 100% 30.24 in 10.0 mi Calm Calm - N/A   Overcast
9:18 AM 39.2 °F - 39.2 °F 100% 30.23 in 10.0 mi Calm Calm - N/A   Overcast
9:30 AM 39.2 °F - 39.2 °F 100% 30.23 in 4.0 mi Calm Calm - N/A   Overcast
9:53 AM 41.0 °F - 41.0 °F 100% 30.25 in 6.0 mi Calm Calm - N/A   Overcast
10:17 AM 42.8 °F - 42.8 °F 100% 30.24 in 10.0 mi Calm Calm - N/A   Overcast
10:44 AM 42.8 °F - 42.8 °F 100% 30.23 in 10.0 mi Calm Calm - N/A   Overcast
10:53 AM 43.0 °F 41.3 °F 42.1 °F 97% 30.25 in 10.0 mi SSW 3.5 mph - N/A   Mostly Cloudy
11:09 AM 42.8 °F 41.1 °F 42.8 °F 100% 30.23 in 10.0 mi SSW 3.5 mph - N/A   Scattered Clouds
11:49 AM 44.6 °F - 42.8 °F 93% 30.23 in 10.0 mi Calm Calm - N/A   Mostly Cloudy
11:53 AM 45.0 °F - 43.0 °F 93% 30.24 in 10.0 mi Calm Calm - N/A   Mostly Cloudy
12:53 PM 46.9 °F - 43.0 °F 86% 30.24 in 10.0 mi ESE 3.5 mph - N/A   Overcast
1:53 PM 46.9 °F - 43.0 °F 86% 30.23 in 10.0 mi Calm Calm - N/A   Overcast
2:33 PM 46.4 °F - 42.8 °F 87% 30.22 in 10.0 mi Calm Calm - N/A   Overcast
2:53 PM 46.0 °F 44.8 °F 43.0 °F 89% 30.23 in 10.0 mi East 3.5 mph - N/A   Overcast
2:56 PM 46.4 °F 45.2 °F 42.8 °F 87% 30.21 in 10.0 mi East 3.5 mph - N/A   Overcast
3:53 PM 46.0 °F - 43.0 °F 89% 30.22 in 10.0 mi Calm Calm - N/A   Overcast
4:53 PM 44.1 °F - 43.0 °F 96% 30.23 in 10.0 mi Calm Calm - N/A   Overcast
5:27 PM 42.8 °F - 42.8 °F 100% 30.21 in 2.0 mi Calm Calm - N/A   Overcast
5:39 PM 42.8 °F - 41.0 °F 93% 30.22 in 1.0 mi Calm Calm - N/A   Overcast
5:49 PM 41.0 °F - 41.0 °F 100% 30.21 in 1.8 mi Calm Calm - N/A   Overcast
5:53 PM 41.0 °F - 41.0 °F 100% 30.23 in 2.5 mi Calm Calm - N/A   Overcast
6:00 PM 41.0 °F - 41.0 °F 100% 30.21 in 6.0 mi Calm Calm - N/A   Overcast
6:18 PM 39.2 °F - 39.2 °F 100% 30.21 in 2.0 mi Calm Calm - N/A   Overcast
6:25 PM 41.0 °F - 41.0 °F 100% 30.21 in 1.2 mi Calm Calm - N/A   Overcast
6:41 PM 41.0 °F - 41.0 °F 100% 30.21 in 3.0 mi Calm Calm - N/A   Overcast
6:53 PM 39.9 °F - 39.9 °F 100% 30.22 in 7.0 mi Calm Calm - N/A   Overcast
7:45 PM 39.2 °F - 39.2 °F 100% 30.22 in 4.0 mi Calm Calm - N/A   Mostly Cloudy
7:53 PM 41.0 °F - 39.9 °F 96% 30.23 in 6.0 mi Calm Calm - N/A   Mostly Cloudy
8:17 PM 39.2 °F - 39.2 °F 100% 30.22 in 9.0 mi Calm Calm - N/A   Scattered Clouds
8:24 PM 37.4 °F - 37.4 °F 100% 30.22 in 2.5 mi Calm Calm - N/A   Scattered Clouds
8:38 PM 37.4 °F - 37.4 °F 100% 30.22 in 5.0 mi Calm Calm - N/A   Partly Cloudy
8:53 PM 37.9 °F - 37.0 °F 97% 30.24 in 2.0 mi Calm Calm - N/A   Partly Cloudy
9:09 PM 35.6 °F - 35.6 °F 100% 30.22 in 1.2 mi Calm Calm - N/A   Mostly Cloudy
9:22 PM 35.6 °F - 35.6 °F 100% 30.23 in 3.0 mi Calm Calm - N/A   Overcast
9:34 PM 35.6 °F 32.8 °F 35.6 °F 100% 30.23 in 1.8 mi SW 3.5 mph - N/A   Overcast
9:53 PM 36.0 °F 33.3 °F 36.0 °F 100% 30.25 in 1.8 mi SW 3.5 mph - N/A   Overcast
10:09 PM 35.6 °F 31.7 °F 35.6 °F 100% 30.23 in 2.5 mi SSW 4.6 mph - N/A   Overcast
10:19 PM 35.6 °F 32.8 °F 35.6 °F 100% 30.23 in 3.0 mi SW 3.5 mph - N/A   Overcast
10:53 PM 36.0 °F - 36.0 °F 100% 30.26 in 10.0 mi Calm Calm - N/A   Overcast
11:53 PM 35.1 °F - 35.1 °F 100% 30.27 in 10.0 mi Calm Calm - N/A   Mostly Cloudy